COSMOS 2323 (GLONASS)

Satellite information

Favourite Embed

Satellite Type and Status

PAYLOADIN ORBIT

Key statistics

Satellite COSMOS 2323 (GLONASS) at a glance.

Uptime

10853

Days in orbit

Revolutions

≈ 2.1

Per day

Orbit

MEO

Medium Earth Orbit

Inclination

65.5

Latest

Satellite identification and parameters

Extended collection of information and parameters for COSMOS 2323 (GLONASS).

Object identification

Identified? True

Debris? False

Object name: COSMOS 2323 (GLONASS)

International designator: 1995-068C

Object number (NORAD): 23736

Object ID (CCSDS): 23736

Country: COMMONWEALTH OF INDEPENDENT STATES (CIS)

Current information (Y/N): Y

RCS size: LARGE

Orbital parameters

Period: 675.727 minutes

Inclination: 65.4644 deg

SMA: 25507.88 km

Apoapsis: 19153.734 km

Periapsis: 19105.755 km

RAAN: 212.0236 deg

Eccentricy: 0.00094046

Argument of periapsis: 192.728 deg

Mean anomaly: 349.1702 deg

Mean motion: 2.13103816 rev/day

Mean motion (dot): 0.00000071 rev/day2

B* drag term: 0.0 1/REarth

Two-line elements (TLE)

Creation date: Aug. 31, 2025, 2:26 a.m.

Reference frame: TEME

Reference center: EARTH

Epoch: Aug. 30, 2025, 3:15 p.m. UTC

TLE line 0: 0 COSMOS 2323 (GLONASS)

TLE line 1: 1 23736U 95068C 25242.63549741 .00000071 00000-0 00000-0 0 9991

TLE line 2: 2 23736 65.4644 212.0236 0009405 192.7280 349.1702 2.13103816231013

Live tracking on map

Real-time ground track for satellite COSMOS 2323 (GLONASS).

In-orbit conjunctions

A list of the most updated potential collisions computed for object COSMOS 2323 (GLONASS).

Target Orbit TCA Probability of collision Miss distance Type
SL-12 R/B(2) MEO 2024-11-07 02:56:04 TBA 4267.0 (m) ROCKET BODY

Associated space launch

GLONASS navigation satellites

COSMOS 2323 (GLONASS) was lifted into orbit during the mission ‘Proton | Uragan 69 to 71’, on board a Proton space rocket.

The launch took place on Dec. 14, 1995, 6:10 a.m. from 200/39 (200L).

For more information about the launch, click the button.

Launch to space Proton | Uragan 69 to 71
Proton | Uragan 69 to 71

Agency: N/A

Status: Launch Successful

Launch date: Dec. 14, 1995, 6:10 a.m. UTC

Rocket: Proton

Launch pad: 200/39 (200L)

Location: Baikonur Cosmodrome, Republic of Kazakhstan

...

Latest news about this satellite

There are no fresh news available about this satellite. Check back as we update our databases every day.


Newsletter sign-up

Weekly statistics, charts and insights to help you stay on top of the space industry.